Regional Weather Roundup
Issued by NWS

Home | Current Version | Previous Version | Graphics & Text | Print | Product List | Glossary On
Versions: 1 2 3 4 5 6 7 8 9 10 11 12 13 14 15 16 17 18 19 20 21 22 23 24 25 26 27 28 29 30 31 32 33 34 35 36 37 38 39 40 41 42 43 44 45 46 47 48 49 50
841
ASUS43 KMPX 250610
RWRMN
WEATHER ROUNDUP FOR MINNESOTA
NATIONAL WEATHER SERVICE TWIN CITIES/CHANHASSEN MN
1200 AM CST SAT NOV 25 2017


NOTE: "FAIR" INDICATES FEW OR NO CLOUDS BELOW 12,000 FEET WITH NO
SIGNIFICANT WEATHER AND/OR OBSTRUCTIONS TO VISIBILITY. N/A MEANS
CURRENT SKY AND/OR WEATHER CONDITIONS ARE NOT AVAILABLE.

MNZ060>063-068>070-250700-
   Twin Cities Metro

CITY           SKY/WX    TMP DP  RH WIND       PRES   REMARKS
TWIN CITIES    PTCLDY    41  34  76 W10       29.78R
6HR MIN TEMP:  40; 6HR MAX TEMP:  47;

ST PAUL        CLEAR     42  34  73 NW12      29.77R
CRYSTAL        PTCLDY    41  31  67 W12       29.76R
BLAINE         CLEAR     39  34  81 W9        29.76R
LAKEVILLE      PTCLDY    37  34  87 W13       29.78R
EDEN PRAIRIE   PTCLDY    39  32  76 W9        29.78R
6HR MIN TEMP:  38; 6HR MAX TEMP:  47;

SOUTH ST PAUL  CLEAR     42  32  68 NW9       29.76R
LAKE ELMO      FAIR      39  34  81 W10       29.76R
$$
MNZ001>005-007-008-013>017-022>024-027-028-250700-
   Northwest Minnesota

CITY           SKY/WX    TMP DP  RH WIND       PRES   REMARKS
BEMIDJI        CLOUDY    32  24  73 NW20G26   29.75R WCI  20
HALLOCK        MOCLDY    23  16  74 N18       29.87R WCI   9
ROSEAU         PTCLDY    25  18  74 NW9       29.80R WCI  15
WARROAD        CLEAR     21  16  79 NW12G17   29.79R WCI   9
THIEF RVR FALL CLOUDY    27  21  78 NW20G26   29.83R WCI  13
CROOKSTON      CLOUDY    28  23  80 N21       29.87R WCI  15
FOSSTON        MOCLDY    28  21  74 NW15G23   29.80R WCI  17
DETROIT LAKES  PTCLDY    34  32  93 NW13      29.80R WCI  25
MOORHEAD       CLEAR     36  28  75 NW13      29.85R
PARK RAPIDS    MOCLDY    35  28  75 NW18      29.75R WCI  24
MAHNOMEN       FAIR      31  27  84 NW14G21   29.81R WCI  21
$$
MNZ006-009>011-018-025>026-250700-
   North Central Minnesota

CITY           SKY/WX    TMP DP  RH WIND       PRES   REMARKS
BAUDETTE       PTCLDY    23  15  71 N17       29.74R WCI   9
FLAG ISLAND    PTCLDY    18  10  73 NW23      29.77R WCI   0
INTL FALLS     CLOUDY    27  15  61 NW14G23   29.68R WCI  16
6HR MIN TEMP:  27; 6HR MAX TEMP:  38; 6HR PCP: TRACE;

WASKISH        CLOUDY    28  21  74 NW16G25   29.74R WCI  17
BIG FORK       CLOUDY    32  19  59 NW8       29.69R WCI  25
LONGVILLE      CLOUDY    36  27  69 NW14G29   29.71R
GRAND RAPIDS   CLOUDY    34  24  67 NW23G31   29.69R WCI  22
CRANE LAKE     CLOUDY    28  18  64 NW13G23   29.65R WCI  18
ORR            CLOUDY    28  18  64 NW14G25   29.62R WCI  17
COOK           CLOUDY    30  19  64 NW13G26   29.64R WCI  20
WALKER         CLOUDY    34  25  71 NW13G23   29.73R WCI  25
$$
MNZ012-019>021-037-250700-
   Northeast Minnesota

CITY           SKY/WX    TMP DP  RH WIND       PRES   REMARKS
DULUTH         CLOUDY    36  30  79 NW18G28   29.60R
6HR MIN TEMP:  36; 6HR MAX TEMP:  39;

ELY            CLOUDY    30  19  64 NW17G35   29.59R WCI  18
HIBBING        CLOUDY    32  25  75 NW24G35   29.64R WCI  19
EVELETH        CLOUDY    32  20  59 NW28G36   29.64R WCI  18
DULUTH HARBOR  CLOUDY    41  34  75 W17       29.64R
TWO HARBORS    CLOUDY    41  34  75 W7G17     29.56S
SILVER BAY     CLOUDY    39  30  70 W3        29.53S
GRAND MARAIS     N/A     39  28  64 W10G21    29.53R
G MARAIS ARPRT CLOUDY    32  23  69 W10G21    29.49R WCI  24
$$
MNZ029>031-032-039>041-046>048-054>057-064-250700-
   West Central Minnesota

CITY           SKY/WX    TMP DP  RH WIND       PRES   REMARKS
FERGUS FALLS   CLEAR     34  28  80 NW10      29.85R WCI  26
WHEATON        CLEAR     37  30  75 W9        29.87R
MORRIS         PTCLDY    36  30  80 NW10      29.83R
ALEXANDRIA     PTCLDY    36  31  82 NW12      29.80R
ELBOW LAKE     FAIR      33  31  90 W12       29.83R WCI  25
WADENA         CLEAR     34  28  80 NW14      29.77R WCI  24
GLENWOOD       CLEAR     36  32  87 NW14      29.81R
APPLETON       PTCLDY    37  30  75 W7        29.85R
BENSON         PTCLDY    34  30  86 NW10      29.85R WCI  26
ORTONVILLE     PTCLDY    39  30  70 NW8       29.85R
MADISON        PTCLDY    37  32  81 W6        29.86R
WILLMAR        FAIR      36  34  93 W8        29.84R
$$
MNZ033>034-036-042>043-049>051-058-059-250700-
   Central Minnesota

CITY           SKY/WX    TMP DP  RH WIND       PRES   REMARKS
ST CLOUD       PTCLDY    37  33  85 NW10      29.77R
6HR MIN TEMP:  37; 6HR MAX TEMP:  43;

SAUK CENTRE    FAIR      35  32  88 W8        29.79R WCI  28
PAYNESVILLE    PTCLDY    34  32  93 W8        29.80R WCI  27
AITKIN         CLOUDY    36  27  69 NW10G17   29.70R
PINE RIVER     PTCLDY    36  25  64 NW16G28   29.77R
BRAINERD       MOCLDY    37  28  70 W9        29.73S
STAPLES        CLEAR     34  27  75 NW14      29.76R WCI  24
LONG PRAIRIE   FAIR      36  32  87 W12       29.78R
LITTLE FALLS   CLEAR     37  25  60 NW15G21   29.77R
LITCHFIELD     PTCLDY    39  34  81 W8        29.81R
BUFFALO        PTCLDY    40  32  75 W10G16    29.79R
MAPLE LAKE     CLEAR     41  35  78 W13G22    29.78R
HUTCHINSON     CLEAR     36  33  89 W8        29.82R
$$
MNZ037-044-045-052-053-250700-
   East Central Minnesota

CITY           SKY/WX    TMP DP  RH WIND       PRES   REMARKS
PRINCETON      CLEAR     37  32  81 W8        29.76R
MORA           CLEAR     36  30  80 W7        29.74R
CAMBRIDGE      CLEAR     41  30  65 W8G16     29.75R
RUSH CITY      CLEAR     34  31  88 W5        29.74R WCI  30
MOOSE LAKE     CLEAR     36  30  80 NW15G22   29.67R
HINCKLEY       FAIR      37  32  81 W8        29.71R
CLOQUET        CLOUDY    37  28  70 W14G22    29.64R
MCGREGOR       MOCLDY    36  28  75 NW20G30   29.70R
$$
MNZ071>073-080-081-089-090-097-098-250700-
   Southwest Minnesota

CITY           SKY/WX    TMP DP  RH WIND       PRES   REMARKS
MONTEVIDEO     PTCLDY    39  32  75 NW7       29.85R
GRANITE FALLS  PTCLDY    40  34  77 W13       29.87R
CANBY          PTCLDY    40  32  74 W8        29.88R
MARSHALL       PTCLDY    39  31  72 NW10      29.87R
REDWOOD FALLS  CLOUDY    39  31  72 W10       29.85R
OLIVIA         CLOUDY    39  32  75 NW10      29.83R
PIPESTONE      CLOUDY    37  30  75 NW7       29.89R
WINDOM         MOCLDY    36  23  60 W8        29.86S
WORTHINGTON    CLOUDY    39  31  72 NW12      29.89S
JACKSON        CLOUDY    41  32  70 NW12G18   29.87S
SLAYTON        MOCLDY    37  32  82 W10       29.89R
$$
MNZ065>067-074>077-082>085-091>093-250700-
   South Central Minnesota

CITY           SKY/WX    TMP DP  RH WIND       PRES   REMARKS
MANKATO        PTCLDY    41  33  73 NW14      29.82R
NEW ULM        MOCLDY    39  30  70 CALM      29.84R
ST JAMES       PTCLDY    43  34  70 W15       29.85S
FAIRMONT       PTCLDY    42  33  70 NW14      29.85S
GLENCOE        CLEAR     39  34  82 W14       29.80R
FARIBAULT      CLEAR     39  34  81 W10       29.80R
OWATONNA       CLEAR     37  34  87 W9        29.80R
WASECA         CLEAR     36  32  87 W10       29.82R
ALBERT LEA     CLEAR     37  30  75 W7        29.81R
$$
MNZ078>079-086>088-094>096-250700-
   Southeast Minnesota

CITY           SKY/WX    TMP DP  RH WIND       PRES   REMARKS
ROCHESTER      CLEAR     37  33  85 NW12      29.76S
6HR MIN TEMP:  37; 6HR MAX TEMP:  49;

RED WING       CLEAR     39  30  70 W3        29.75R
STANTON        PTCLDY    39  33  78 W10       29.77R
DODGE CENTER   PTCLDY    39  32  75 W12       29.78R
WINONA         CLEAR     41  34  75 NW7       29.75S
AUSTIN         CLEAR     37  32  81 W8        29.80R
PRESTON        CLEAR     36  32  85 NW9       29.77S
$$
ABBREVIATIONS USED IN REMARKS
   TC - TEMPERATURES IN CELSIUS
  WCI - WIND CHILL INDEX
   HX - HEAT INDEX
  VSB - VISIBILITY
$$




USA.gov is the U.S. government's official web portal to all federal, state and local government web resources and services.